This is the latest recevied weather packets stored in our database for station/object DL2GPS-3. If no packets are shown the sender has not sent any weather packets the latest 10 day(s).
| Time | Temp. | Humidity | Pressure | Rain* | Wind** | Luminosity | Snow |
|---|---|---|---|---|---|---|---|
| 1777629889 | 17.78° C | 33% | 1026.6 hPa | - | - | - | - |
| 1777629284 | 17.22° C | 32% | 1026.7 hPa | - | - | - | - |
| 1777628678 | 16.67° C | 32% | 1026.7 hPa | - | - | - | - |
| 1777628073 | 16.11° C | 32% | 1026.7 hPa | - | - | - | - |
| 1777627468 | 16.67° C | 32% | 1026.6 hPa | - | - | - | - |
| 1777626864 | 16.11° C | 32% | 1026.6 hPa | - | - | - | - |
| 1777626259 | 15° C | 33% | 1026.5 hPa | - | - | - | - |
| 1777625653 | 15° C | 32% | 1026.5 hPa | - | - | - | - |
| 1777625048 | 15° C | 32% | 1026.4 hPa | - | - | - | - |
| 1777624443 | 14.44° C | 32% | 1026.4 hPa | - | - | - | - |
| 1777623838 | 13.89° C | 31% | 1026.4 hPa | - | - | - | - |
| 1777623233 | 13.89° C | 31% | 1026.3 hPa | - | - | - | - |
| 1777622628 | 13.89° C | 31% | 1026.1 hPa | - | - | - | - |
| 1777622024 | 13.89° C | 30% | 1026.1 hPa | - | - | - | - |
| 1777621418 | 13.33° C | 30% | 1026.1 hPa | - | - | - | - |
| 1777620813 | 13.89° C | 30% | 1025.9 hPa | - | - | - | - |
| 1777620209 | 13.33° C | 30% | 1025.9 hPa | - | - | - | - |
| 1777619604 | 13.89° C | 29% | 1025.8 hPa | - | - | - | - |
| 1777619000 | 13.89° C | 29% | 1025.8 hPa | - | - | - | - |
| 1777618395 | 13.33° C | 29% | 1025.6 hPa | - | - | - | - |
| 1777617790 | 13.89° C | 28% | 1025.6 hPa | - | - | - | - |
| 1777617186 | 13.89° C | 26% | 1025.6 hPa | - | - | - | - |
| 1777616581 | 17.78° C | 22% | 1025.5 hPa | - | - | - | - |
| 1777615976 | 21.11° C | 18% | 1025.5 hPa | - | - | - | - |
| 1777615371 | 24.44° C | 16% | 1025.4 hPa | - | - | - | - |
* Rain since midnight (hover to see other rain measurements)
** Current wind speed in m/s (hover to see current wind gust speed)